Time,TemperatureF,DewpointF,PressureIn,WindDirection,WindDirectionDegrees,WindSpeedMPH,WindSpeedGustMPH,Humidity,HourlyPrecipIn,Conditions,Clouds,dailyrainin,SoftwareType,DateUTC
2013-01-18 00:01:00,45.2,34.5,30.53,NNE,26,0.0,1.0,66,0.00,,SKC,0.00,VWS V14.01,2013-01-18 06:01:00,
2013-01-18 00:06:00,45.1,34.8,30.53,NNE,25,0.0,3.0,67,0.00,,SKC,0.00,VWS V14.01,2013-01-18 06:06:00,
2013-01-18 00:11:00,45.2,34.9,30.53,NNE,26,0.0,3.0,67,0.00,,SKC,0.00,VWS V14.01,2013-01-18 06:11:00,
2013-01-18 00:16:00,45.3,35.0,30.53,NNE,25,1.0,4.0,67,0.00,,SKC,0.00,VWS V14.01,2013-01-18 06:16:00,
2013-01-18 00:21:00,45.5,34.8,30.53,NNE,25,0.0,4.0,66,0.00,,SKC,0.00,VWS V14.01,2013-01-18 06:21:00,
2013-01-18 00:26:00,45.6,34.9,30.53,NNE,25,0.0,4.0,66,0.00,,SKC,0.00,VWS V14.01,2013-01-18 06:26:00,
2013-01-18 00:31:00,45.7,35.0,30.53,NNE,25,0.0,4.0,66,0.00,,SKC,0.00,VWS V14.01,2013-01-18 06:31:00,
2013-01-18 00:36:00,45.7,34.6,30.52,NNE,25,2.0,3.0,65,0.00,,SKC,0.00,VWS V14.01,2013-01-18 06:36:00,
2013-01-18 00:41:00,45.7,34.6,30.52,NNE,25,0.0,3.0,65,0.00,,SKC,0.00,VWS V14.01,2013-01-18 06:41:00,
2013-01-18 00:46:00,45.8,34.7,30.52,NNE,25,0.0,3.0,65,0.00,,SKC,0.00,VWS V14.01,2013-01-18 06:46:00,
2013-01-18 00:51:00,45.8,34.7,30.52,NNE,25,0.0,4.0,65,0.00,,SKC,0.00,VWS V14.01,2013-01-18 06:51:00,
2013-01-18 00:56:00,45.8,34.7,30.52,NNE,25,0.0,4.0,65,0.00,,SKC,0.00,VWS V14.01,2013-01-18 06:56:00,
2013-01-18 01:01:00,45.8,34.7,30.53,NNE,25,0.0,4.0,65,0.00,,SKC,0.00,VWS V14.01,2013-01-18 07:01:00,
2013-01-18 01:06:00,45.8,34.3,30.53,NNE,25,0.0,0.0,64,0.00,,SKC,0.00,VWS V14.01,2013-01-18 07:06:00,
2013-01-18 01:11:00,45.6,34.1,30.52,NNE,25,0.0,0.0,64,0.00,,SKC,0.00,VWS V14.01,2013-01-18 07:11:00,
2013-01-18 01:16:00,45.4,34.3,30.52,NNE,25,0.0,2.0,65,0.00,,SKC,0.00,VWS V14.01,2013-01-18 07:16:00,
2013-01-18 01:21:00,45.1,34.0,30.53,NNE,25,0.0,2.0,65,0.00,,SKC,0.00,VWS V14.01,2013-01-18 07:21:00,
2013-01-18 01:26:00,44.9,34.2,30.53,NNE,25,0.0,2.0,66,0.00,,SKC,0.00,VWS V14.01,2013-01-18 07:26:00,
2013-01-18 01:31:00,44.8,34.2,30.53,NNE,25,0.0,4.0,66,0.00,,SKC,0.00,VWS V14.01,2013-01-18 07:31:00,
2013-01-18 01:36:00,44.8,34.2,30.53,NNE,25,0.0,3.0,66,0.00,,SKC,0.00,VWS V14.01,2013-01-18 07:36:00,
2013-01-18 01:41:00,44.7,34.0,30.53,NNE,25,1.0,3.0,66,0.00,,SKC,0.00,VWS V14.01,2013-01-18 07:41:00,
2013-01-18 01:46:00,44.7,34.0,30.53,NNE,25,1.0,3.0,66,0.00,,SKC,0.00,VWS V14.01,2013-01-18 07:46:00,
2013-01-18 01:51:00,44.5,34.2,30.53,NNE,25,0.0,3.0,67,0.00,,SKC,0.00,VWS V14.01,2013-01-18 07:51:00,
2013-01-18 01:56:00,44.4,34.1,30.53,NNE,25,0.0,3.0,67,0.00,,SKC,0.00,VWS V14.01,2013-01-18 07:56:00,
2013-01-18 02:01:00,44.3,34.0,30.53,NNE,25,0.0,3.0,67,0.00,,SKC,0.00,VWS V14.01,2013-01-18 08:01:00,
2013-01-18 02:06:00,44.1,33.9,30.53,NNE,25,0.0,4.0,67,0.00,,SKC,0.00,VWS V14.01,2013-01-18 08:06:00,
2013-01-18 02:11:00,44.0,33.8,30.53,NNE,25,0.0,4.0,67,0.00,,SKC,0.00,VWS V14.01,2013-01-18 08:11:00,
2013-01-18 02:16:00,43.9,33.7,30.53,NNE,25,0.0,4.0,67,0.00,,SKC,0.00,VWS V14.01,2013-01-18 08:16:00,
2013-01-18 02:21:00,43.8,33.9,30.53,NNE,25,0.0,4.0,68,0.00,,SKC,0.00,VWS V14.01,2013-01-18 08:21:00,
2013-01-18 02:26:00,43.7,33.8,30.54,NNE,25,0.0,4.0,68,0.00,,SKC,0.00,VWS V14.01,2013-01-18 08:26:00,
2013-01-18 02:31:00,43.5,33.7,30.53,NNE,25,0.0,4.0,68,0.00,,SKC,0.00,VWS V14.01,2013-01-18 08:31:00,
2013-01-18 02:36:00,43.3,33.5,30.53,NNE,25,0.0,0.0,68,0.00,,SKC,0.00,VWS V14.01,2013-01-18 08:36:00,
2013-01-18 02:41:00,43.1,33.3,30.53,NNE,25,0.0,2.0,68,0.00,,SKC,0.00,VWS V14.01,2013-01-18 08:41:00,
2013-01-18 02:46:00,42.9,33.4,30.53,NNE,25,0.0,2.0,69,0.00,,SKC,0.00,VWS V14.01,2013-01-18 08:46:00,
2013-01-18 02:51:00,42.7,33.2,30.53,NNE,25,0.0,2.0,69,0.00,,SKC,0.00,VWS V14.01,2013-01-18 08:51:00,
2013-01-18 02:56:00,42.5,33.4,30.53,NNE,24,2.0,2.0,70,0.00,,SKC,0.00,VWS V14.01,2013-01-18 08:56:00,
2013-01-18 03:01:00,42.4,33.3,30.53,NNE,25,0.0,2.0,70,0.00,,SKC,0.00,VWS V14.01,2013-01-18 09:01:00,
2013-01-18 03:06:00,42.3,33.2,30.53,NNE,25,0.0,0.0,70,0.00,,SKC,0.00,VWS V14.01,2013-01-18 09:06:00,
2013-01-18 03:11:00,42.2,33.1,30.53,NNE,24,0.0,0.0,70,0.00,,SKC,0.00,VWS V14.01,2013-01-18 09:11:00,
2013-01-18 03:16:00,42.0,32.9,30.53,NNE,25,0.0,0.0,70,0.00,,SKC,0.00,VWS V14.01,2013-01-18 09:16:00,
2013-01-18 03:21:00,41.7,33.0,30.53,NNE,25,0.0,0.0,71,0.00,,SKC,0.00,VWS V14.01,2013-01-18 09:21:00,
2013-01-18 03:26:00,41.5,32.8,30.53,NNE,25,2.0,2.0,71,0.00,,SKC,0.00,VWS V14.01,2013-01-18 09:26:00,
2013-01-18 03:31:00,41.4,33.1,30.53,NNE,25,0.0,2.0,72,0.00,,SKC,0.00,VWS V14.01,2013-01-18 09:31:00,
2013-01-18 03:36:00,41.4,33.1,30.53,NNE,25,1.0,1.0,72,0.00,,SKC,0.00,VWS V14.01,2013-01-18 09:36:00,
2013-01-18 03:41:00,41.3,33.0,30.53,NNE,25,1.0,1.0,72,0.00,,SKC,0.00,VWS V14.01,2013-01-18 09:41:00,
2013-01-18 03:46:00,41.2,32.9,30.53,NNE,25,3.0,3.0,72,0.00,,SKC,0.00,VWS V14.01,2013-01-18 09:46:00,
2013-01-18 03:51:00,41.1,32.8,30.53,NNE,25,0.0,3.0,72,0.00,,SKC,0.00,VWS V14.01,2013-01-18 09:51:00,
2013-01-18 03:56:00,41.0,32.7,30.53,NNE,25,0.0,3.0,72,0.00,,SKC,0.00,VWS V14.01,2013-01-18 09:56:00,
2013-01-18 04:01:00,40.8,32.5,30.53,NNE,24,0.0,3.0,72,0.00,,SKC,0.00,VWS V14.01,2013-01-18 10:01:00,
2013-01-18 04:06:00,40.6,32.3,30.53,NNE,24,0.0,3.0,72,0.00,,SKC,0.00,VWS V14.01,2013-01-18 10:06:00,
2013-01-18 04:11:00,40.5,32.5,30.52,NNE,25,0.0,3.0,73,0.00,,SKC,0.00,VWS V14.01,2013-01-18 10:11:00,
2013-01-18 04:16:00,40.5,32.5,30.52,NNE,25,0.0,3.0,73,0.00,,SKC,0.00,VWS V14.01,2013-01-18 10:16:00,
2013-01-18 04:21:00,40.4,32.4,30.52,NNE,25,0.0,3.0,73,0.00,,SKC,0.00,VWS V14.01,2013-01-18 10:21:00,
2013-01-18 04:26:00,40.4,32.4,30.52,NNE,25,0.0,3.0,73,0.00,,SKC,0.00,VWS V14.01,2013-01-18 10:26:00,
2013-01-18 04:31:00,40.3,32.7,30.52,NNE,25,0.0,3.0,74,0.00,,SKC,0.00,VWS V14.01,2013-01-18 10:31:00,
2013-01-18 04:36:00,40.4,32.8,30.52,NNE,25,0.0,0.0,74,0.00,,SKC,0.00,VWS V14.01,2013-01-18 10:36:00,
2013-01-18 04:41:00,40.3,32.7,30.53,NNE,25,0.0,0.0,74,0.00,,SKC,0.00,VWS V14.01,2013-01-18 10:41:00,
2013-01-18 04:46:00,40.3,32.7,30.53,NNE,25,0.0,0.0,74,0.00,,SKC,0.00,VWS V14.01,2013-01-18 10:46:00,
2013-01-18 04:51:00,40.2,32.6,30.53,NNE,25,0.0,0.0,74,0.00,,SKC,0.00,VWS V14.01,2013-01-18 10:51:00,
2013-01-18 04:56:00,40.1,32.5,30.52,NNE,24,0.0,3.0,74,0.00,,SKC,0.00,VWS V14.01,2013-01-18 10:56:00,
2013-01-18 05:01:00,39.8,32.2,30.52,NNE,25,0.0,3.0,74,0.00,,SKC,0.00,VWS V14.01,2013-01-18 11:01:00,
2013-01-18 05:06:00,39.6,32.0,30.52,NNE,24,0.0,2.0,74,0.00,,SKC,0.00,VWS V14.01,2013-01-18 11:06:00,
2013-01-18 05:11:00,39.4,32.2,30.53,NNE,25,0.0,2.0,75,0.00,,SKC,0.00,VWS V14.01,2013-01-18 11:11:00,
2013-01-18 05:16:00,39.2,32.0,30.53,NNE,25,0.0,2.0,75,0.00,,SKC,0.00,VWS V14.01,2013-01-18 11:16:00,
2013-01-18 05:21:00,39.0,31.8,30.53,NNE,25,0.0,2.0,75,0.00,,SKC,0.00,VWS V14.01,2013-01-18 11:21:00,
2013-01-18 05:26:00,38.8,31.9,30.52,NNE,25,0.0,2.0,76,0.00,,SKC,0.00,VWS V14.01,2013-01-18 11:26:00,
2013-01-18 05:31:00,38.7,31.8,30.53,NNE,25,0.0,3.0,76,0.00,,SKC,0.00,VWS V14.01,2013-01-18 11:31:00,
2013-01-18 05:36:00,38.7,32.1,30.52,NNE,25,1.0,3.0,77,0.00,,SKC,0.00,VWS V14.01,2013-01-18 11:36:00,
2013-01-18 05:41:00,38.8,32.2,30.52,NNE,25,0.0,3.0,77,0.00,,SKC,0.00,VWS V14.01,2013-01-18 11:41:00,
2013-01-18 05:46:00,38.9,32.3,30.53,NNE,25,1.0,3.0,77,0.00,,SKC,0.00,VWS V14.01,2013-01-18 11:46:00,
2013-01-18 05:51:00,39.1,32.2,30.52,NNE,25,0.0,3.0,76,0.00,,SKC,0.00,VWS V14.01,2013-01-18 11:51:00,
2013-01-18 05:56:00,39.2,32.3,30.52,NNE,25,0.0,3.0,76,0.00,,SKC,0.00,VWS V14.01,2013-01-18 11:56:00,
2013-01-18 06:01:00,39.3,32.4,30.52,NNE,25,0.0,3.0,76,0.00,,SKC,0.00,VWS V14.01,2013-01-18 12:01:00,
2013-01-18 06:06:00,39.5,32.6,30.52,NNE,25,0.0,0.0,76,0.00,,SKC,0.00,VWS V14.01,2013-01-18 12:06:00,
2013-01-18 06:11:00,39.6,32.3,30.53,NNE,25,0.0,3.0,75,0.00,,SKC,0.00,VWS V14.01,2013-01-18 12:11:00,
2013-01-18 06:16:00,39.6,32.3,30.53,NNE,25,0.0,3.0,75,0.00,,SKC,0.00,VWS V14.01,2013-01-18 12:16:00,
2013-01-18 06:21:00,39.7,32.4,30.53,NNE,25,2.0,4.0,75,0.00,,SKC,0.00,VWS V14.01,2013-01-18 12:21:00,
2013-01-18 06:26:00,39.7,32.4,30.53,NNE,24,0.0,5.0,75,0.00,,SKC,0.00,VWS V14.01,2013-01-18 12:26:00,
2013-01-18 06:31:00,39.8,32.5,30.53,NNE,24,1.0,5.0,75,0.00,,SKC,0.00,VWS V14.01,2013-01-18 12:31:00,
2013-01-18 06:36:00,39.8,32.5,30.53,NNE,24,0.0,4.0,75,0.00,,SKC,0.00,VWS V14.01,2013-01-18 12:36:00,
2013-01-18 06:41:00,39.9,32.6,30.53,NNE,24,1.0,4.0,75,0.00,,SKC,0.00,VWS V14.01,2013-01-18 12:41:00,
2013-01-18 06:46:00,40.0,32.7,30.53,NNE,24,1.0,4.0,75,0.00,,SKC,0.00,VWS V14.01,2013-01-18 12:46:00,
2013-01-18 06:51:00,40.0,32.7,30.53,NNE,24,0.0,4.0,75,0.00,,SKC,0.00,VWS V14.01,2013-01-18 12:51:00,
2013-01-18 06:56:00,40.0,32.4,30.53,NNE,24,0.0,4.0,74,0.00,,SKC,0.00,VWS V14.01,2013-01-18 12:56:00,
2013-01-18 07:01:00,39.9,32.3,30.53,NNE,24,2.0,4.0,74,0.00,,SKC,0.00,VWS V14.01,2013-01-18 13:01:00,
2013-01-18 07:06:00,39.9,32.3,30.53,NNE,23,0.0,4.0,74,0.00,,SKC,0.00,VWS V14.01,2013-01-18 13:06:00,
2013-01-18 07:11:00,39.9,32.3,30.53,NNE,22,0.0,4.0,74,0.00,,SKC,0.00,VWS V14.01,2013-01-18 13:11:00,
2013-01-18 07:15:00,39.9,32.3,30.53,NNE,22,0.0,4.0,74,0.00,,SKC,0.00,VWS V14.01,2013-01-18 13:15:00,
2013-01-18 07:20:00,39.9,32.3,30.53,NNE,22,0.0,5.0,74,0.00,,SKC,0.00,VWS V14.01,2013-01-18 13:20:00,
2013-01-18 07:26:00,40.0,32.4,30.54,NNE,21,0.0,5.0,74,0.00,,SKC,0.00,VWS V14.01,2013-01-18 13:26:00,
2013-01-18 07:31:00,40.0,32.4,30.53,NNE,21,0.0,5.0,74,0.00,,SKC,0.00,VWS V14.01,2013-01-18 13:31:00,
2013-01-18 07:36:00,40.0,32.4,30.54,NNE,21,0.0,1.0,74,0.00,,SKC,0.00,VWS V14.01,2013-01-18 13:36:00,
2013-01-18 07:41:00,39.9,32.3,30.53,NNE,21,0.0,2.0,74,0.00,,SKC,0.00,VWS V14.01,2013-01-18 13:41:00,
2013-01-18 07:46:00,39.8,32.2,30.54,NNE,21,0.0,2.0,74,0.00,,SKC,0.00,VWS V14.01,2013-01-18 13:46:00,
2013-01-18 07:51:00,39.8,32.2,30.53,NNE,21,0.0,3.0,74,0.00,,SKC,0.00,VWS V14.01,2013-01-18 13:51:00,
2013-01-18 07:56:00,39.8,32.5,30.54,NNE,20,2.0,5.0,75,0.00,,SKC,0.00,VWS V14.01,2013-01-18 13:56:00,
2013-01-18 08:01:00,39.9,32.6,30.54,NNE,21,0.0,5.0,75,0.00,,SKC,0.00,VWS V14.01,2013-01-18 14:01:00,
2013-01-18 08:06:00,40.1,32.5,30.54,NNE,21,0.0,3.0,74,0.00,,SKC,0.00,VWS V14.01,2013-01-18 14:06:00,
2013-01-18 08:11:00,40.3,32.7,30.54,NNE,19,0.0,7.0,74,0.00,,SKC,0.00,VWS V14.01,2013-01-18 14:11:00,
2013-01-18 08:16:00,40.5,32.9,30.55,NNE,19,1.0,7.0,74,0.00,,SKC,0.00,VWS V14.01,2013-01-18 14:16:00,
2013-01-18 08:21:00,40.8,33.2,30.54,NNE,19,0.0,7.0,74,0.00,,SKC,0.00,VWS V14.01,2013-01-18 14:21:00,
2013-01-18 08:26:00,41.0,33.4,30.55,NNE,18,0.0,7.0,74,0.00,,SKC,0.00,VWS V14.01,2013-01-18 14:26:00,
2013-01-18 08:30:00,41.3,33.3,30.55,NNE,18,0.0,7.0,73,0.00,,SKC,0.00,VWS V14.01,2013-01-18 14:30:00,
2013-01-18 08:35:00,41.6,33.6,30.55,NNE,17,0.0,3.0,73,0.00,,SKC,0.00,VWS V14.01,2013-01-18 14:35:00,
2013-01-18 08:40:00,42.0,35.0,30.55,NNE,17,0.0,3.0,76,0.00,,SKC,0.00,VWS V14.01,2013-01-18 14:40:00,
2013-01-18 08:45:00,42.6,34.2,30.55,NNE,17,4.0,5.0,72,0.00,,SKC,0.00,VWS V14.01,2013-01-18 14:45:00,
2013-01-18 08:50:00,43.2,34.5,30.55,NNE,17,0.0,5.0,71,0.00,,SKC,0.00,VWS V14.01,2013-01-18 14:50:00,
2013-01-18 08:55:00,43.7,34.6,30.55,NNE,17,2.0,5.0,70,0.00,,SKC,0.00,VWS V14.01,2013-01-18 14:55:00,
2013-01-18 09:00:00,44.1,35.0,30.55,NNE,17,0.0,5.0,70,0.00,,SKC,0.00,VWS V14.01,2013-01-18 15:00:00,
2013-01-18 09:05:00,44.6,35.4,30.55,NNE,17,0.0,1.0,70,0.00,,SKC,0.00,VWS V14.01,2013-01-18 15:05:00,
2013-01-18 09:10:00,45.2,35.7,30.55,NNE,17,0.0,1.0,69,0.00,,SKC,0.00,VWS V14.01,2013-01-18 15:10:00,
2013-01-18 09:15:00,46.1,36.1,30.55,NNE,17,0.0,2.0,68,0.00,,SKC,0.00,VWS V14.01,2013-01-18 15:15:00,
2013-01-18 09:20:00,47.0,36.2,30.56,NE,44,0.0,5.0,66,0.00,,SKC,0.00,VWS V14.01,2013-01-18 15:20:00,
2013-01-18 09:25:00,48.0,36.4,30.56,NE,43,0.0,5.0,64,0.00,,SKC,0.00,VWS V14.01,2013-01-18 15:25:00,
2013-01-18 09:30:00,48.9,36.1,30.55,NE,46,0.0,5.0,61,0.00,,SKC,0.00,VWS V14.01,2013-01-18 15:30:00,
2013-01-18 09:35:00,49.9,36.6,30.55,NE,49,0.0,1.0,60,0.00,,SKC,0.00,VWS V14.01,2013-01-18 15:35:00,
2013-01-18 09:40:00,50.7,36.0,30.56,ENE,78,0.0,5.0,57,0.00,,SKC,0.00,VWS V14.01,2013-01-18 15:40:00,
2013-01-18 09:45:00,51.5,36.3,30.56,East,79,2.0,5.0,56,0.00,,SKC,0.00,VWS V14.01,2013-01-18 15:45:00,
2013-01-18 09:50:00,52.1,36.0,30.56,East,84,0.0,5.0,54,0.00,,SKC,0.00,VWS V14.01,2013-01-18 15:50:00,
2013-01-18 09:55:00,52.6,36.0,30.56,ESE,112,3.0,6.0,53,0.00,,SKC,0.00,VWS V14.01,2013-01-18 15:55:00,
2013-01-18 10:00:00,53.0,36.3,30.56,East,100,3.0,6.0,53,0.00,,SKC,0.00,VWS V14.01,2013-01-18 16:00:00,
2013-01-18 10:05:00,53.5,36.8,30.56,ESE,116,0.0,2.0,53,0.00,,SKC,0.00,VWS V14.01,2013-01-18 16:05:00,
2013-01-18 10:10:00,54.0,36.3,30.56,ESE,109,0.0,5.0,51,0.00,,SKC,0.00,VWS V14.01,2013-01-18 16:10:00,
2013-01-18 10:15:00,54.3,36.6,30.56,ESE,109,0.0,5.0,51,0.00,,SKC,0.00,VWS V14.01,2013-01-18 16:15:00,
2013-01-18 10:20:00,54.8,37.0,30.56,ESE,109,0.0,5.0,51,0.00,,SKC,0.00,VWS V14.01,2013-01-18 16:20:00,
2013-01-18 10:25:00,55.6,37.3,30.56,ESE,117,4.0,6.0,50,0.00,,SKC,0.00,VWS V14.01,2013-01-18 16:25:00,
2013-01-18 10:30:00,56.2,37.3,30.56,ESE,117,0.0,6.0,49,0.00,,SKC,0.00,VWS V14.01,2013-01-18 16:30:00,
2013-01-18 10:35:00,56.8,37.3,30.56,ESE,117,0.0,3.0,48,0.00,,SKC,0.00,VWS V14.01,2013-01-18 16:35:00,
2013-01-18 10:40:00,57.3,37.3,30.56,ESE,117,0.0,4.0,47,0.00,,SKC,0.00,VWS V14.01,2013-01-18 16:40:00,
2013-01-18 10:45:00,57.5,36.9,30.56,SE,126,3.0,7.0,46,0.00,,SKC,0.00,VWS V14.01,2013-01-18 16:45:00,
2013-01-18 10:50:00,57.4,36.8,30.56,SSE,153,2.0,7.0,46,0.00,,SKC,0.00,VWS V14.01,2013-01-18 16:50:00,
2013-01-18 10:55:00,57.5,36.9,30.55,SSE,153,2.0,7.0,46,0.00,,SKC,0.00,VWS V14.01,2013-01-18 16:55:00,
2013-01-18 11:00:00,57.7,37.1,30.56,SE,138,3.0,10.0,46,0.00,,SKC,0.00,VWS V14.01,2013-01-18 17:00:00,
2013-01-18 11:05:00,57.9,37.8,30.55,SE,139,2.0,6.0,47,0.00,,SKC,0.00,VWS V14.01,2013-01-18 17:05:00,
2013-01-18 11:10:00,58.2,37.5,30.55,SE,141,4.0,7.0,46,0.00,,SKC,0.00,VWS V14.01,2013-01-18 17:10:00,
2013-01-18 11:15:00,58.3,37.1,30.55,SE,141,4.0,9.0,45,0.00,,SKC,0.00,VWS V14.01,2013-01-18 17:15:00,
2013-01-18 11:20:00,58.4,37.7,30.55,SE,141,9.0,10.0,46,0.00,,SKC,0.00,VWS V14.01,2013-01-18 17:20:00,
2013-01-18 11:25:00,58.5,37.2,30.54,SE,140,3.0,10.0,45,0.00,,SKC,0.00,VWS V14.01,2013-01-18 17:25:00,
2013-01-18 11:30:00,58.5,37.2,30.53,SE,142,8.0,10.0,45,0.00,,SKC,0.00,VWS V14.01,2013-01-18 17:30:00,
2013-01-18 11:35:00,58.6,37.3,30.53,SE,142,4.0,5.0,45,0.00,,SKC,0.00,VWS V14.01,2013-01-18 17:35:00,
2013-01-18 11:40:00,59.1,37.8,30.52,SE,130,6.0,10.0,45,0.00,,SKC,0.00,VWS V14.01,2013-01-18 17:40:00,
2013-01-18 11:45:00,59.4,36.9,30.52,SSW,193,3.0,10.0,43,0.00,,SKC,0.00,VWS V14.01,2013-01-18 17:45:00,
2013-01-18 11:50:00,59.3,36.8,30.51,SSE,156,3.0,10.0,43,0.00,,SKC,0.00,VWS V14.01,2013-01-18 17:50:00,
2013-01-18 11:55:00,59.6,37.1,30.51,SE,138,3.0,10.0,43,0.00,,SKC,0.00,VWS V14.01,2013-01-18 17:55:00,
2013-01-18 12:00:00,59.9,37.4,30.51,SSE,154,2.0,10.0,43,0.00,,SKC,0.00,VWS V14.01,2013-01-18 18:00:00,
2013-01-18 12:05:00,59.9,37.4,30.50,SSE,157,1.0,3.0,43,0.00,,SKC,0.00,VWS V14.01,2013-01-18 18:05:00,
2013-01-18 12:10:00,59.9,36.2,30.50,SSE,147,5.0,10.0,41,0.00,,SKC,0.00,VWS V14.01,2013-01-18 18:10:00,
2013-01-18 12:15:00,60.0,36.9,30.50,SE,140,1.0,10.0,42,0.00,,SKC,0.00,VWS V14.01,2013-01-18 18:15:00,
2013-01-18 12:20:00,60.2,37.6,30.49,SE,140,0.0,10.0,43,0.00,,SKC,0.00,VWS V14.01,2013-01-18 18:20:00,
2013-01-18 12:25:00,60.7,37.5,30.49,SE,146,5.0,10.0,42,0.00,,SKC,0.00,VWS V14.01,2013-01-18 18:25:00,
2013-01-18 12:30:00,60.6,36.8,30.48,SSE,151,2.0,10.0,41,0.00,,SKC,0.00,VWS V14.01,2013-01-18 18:30:00,
2013-01-18 12:35:00,60.5,37.3,30.48,SSE,151,2.0,5.0,42,0.00,,SKC,0.00,VWS V14.01,2013-01-18 18:35:00,
2013-01-18 12:40:00,61.1,37.2,30.47,SSE,158,5.0,11.0,41,0.00,,SKC,0.00,VWS V14.01,2013-01-18 18:40:00,
2013-01-18 12:45:00,61.2,36.7,30.47,SSW,192,4.0,11.0,40,0.00,,SKC,0.00,VWS V14.01,2013-01-18 18:45:00,
2013-01-18 12:50:00,61.4,36.2,30.46,South,180,4.0,11.0,39,0.00,,SKC,0.00,VWS V14.01,2013-01-18 18:50:00,
2013-01-18 12:55:00,61.4,36.9,30.46,SSW,205,5.0,12.0,40,0.00,,SKC,0.00,VWS V14.01,2013-01-18 18:55:00,
2013-01-18 13:00:00,61.3,36.2,30.45,SSE,163,5.0,12.0,39,0.00,,SKC,0.00,VWS V14.01,2013-01-18 19:00:00,
2013-01-18 13:05:00,61.2,36.1,30.45,South,169,4.0,7.0,39,0.00,,SKC,0.00,VWS V14.01,2013-01-18 19:05:00,
2013-01-18 13:10:00,61.5,36.3,30.45,SSE,167,3.0,7.0,39,0.00,,SKC,0.00,VWS V14.01,2013-01-18 19:10:00,
2013-01-18 13:15:00,61.8,36.6,30.44,SSW,213,3.0,9.0,39,0.00,,SKC,0.00,VWS V14.01,2013-01-18 19:15:00,
2013-01-18 13:20:00,61.7,35.9,30.44,SSE,154,2.0,10.0,38,0.00,,SKC,0.00,VWS V14.01,2013-01-18 19:20:00,
2013-01-18 13:25:00,61.8,36.0,30.43,South,184,3.0,10.0,38,0.00,,SKC,0.00,VWS V14.01,2013-01-18 19:25:00,
2013-01-18 13:30:00,61.8,36.0,30.43,SSE,165,0.0,10.0,38,0.00,,SKC,0.00,VWS V14.01,2013-01-18 19:30:00,
2013-01-18 13:35:00,61.9,36.7,30.43,SSW,198,4.0,12.0,39,0.00,,SKC,0.00,VWS V14.01,2013-01-18 19:35:00,
2013-01-18 13:40:00,62.1,36.9,30.42,South,184,5.0,12.0,39,0.00,,SKC,0.00,VWS V14.01,2013-01-18 19:40:00,
2013-01-18 13:45:00,62.4,37.1,30.42,South,180,3.0,12.0,39,0.00,,SKC,0.00,VWS V14.01,2013-01-18 19:45:00,
2013-01-18 13:50:00,62.6,36.7,30.42,SW,236,9.0,12.0,38,0.00,,SKC,0.00,VWS V14.01,2013-01-18 19:50:00,
2013-01-18 13:55:00,62.9,36.9,30.42,SSW,207,3.0,12.0,38,0.00,,SKC,0.00,VWS V14.01,2013-01-18 19:55:00,
2013-01-18 14:00:00,63.3,36.6,30.41,SSW,198,4.0,12.0,37,0.00,,SKC,0.00,VWS V14.01,2013-01-18 20:00:00,
2013-01-18 14:05:00,63.3,35.9,30.41,SSW,208,4.0,7.0,36,0.00,,SKC,0.00,VWS V14.01,2013-01-18 20:05:00,
2013-01-18 14:10:00,63.3,35.9,30.41,SSW,192,7.0,11.0,36,0.00,,SKC,0.00,VWS V14.01,2013-01-18 20:10:00,
2013-01-18 14:15:00,63.2,35.8,30.40,South,184,3.0,11.0,36,0.00,,SKC,0.00,VWS V14.01,2013-01-18 20:15:00,
2013-01-18 14:20:00,63.4,36.0,30.40,SSW,194,5.0,11.0,36,0.00,,SKC,0.00,VWS V14.01,2013-01-18 20:20:00,
2013-01-18 14:25:00,63.5,35.4,30.40,SSW,192,6.0,11.0,35,0.00,,SKC,0.00,VWS V14.01,2013-01-18 20:25:00,
2013-01-18 14:30:00,63.4,36.0,30.40,SW,218,1.0,11.0,36,0.00,,SKC,0.00,VWS V14.01,2013-01-18 20:30:00,
2013-01-18 14:35:00,63.6,35.5,30.39,SW,219,3.0,7.0,35,0.00,,SKC,0.00,VWS V14.01,2013-01-18 20:35:00,
2013-01-18 14:40:00,63.7,36.3,30.40,SSE,155,3.0,7.0,36,0.00,,SKC,0.00,VWS V14.01,2013-01-18 20:40:00,
2013-01-18 14:45:00,63.8,35.7,30.39,SSE,158,4.0,7.0,35,0.00,,SKC,0.00,VWS V14.01,2013-01-18 20:45:00,
2013-01-18 14:50:00,63.6,35.5,30.39,SSW,207,2.0,8.0,35,0.00,,SKC,0.00,VWS V14.01,2013-01-18 20:50:00,
2013-01-18 14:55:00,63.5,35.4,30.39,SSE,157,3.0,11.0,35,0.00,,SKC,0.00,VWS V14.01,2013-01-18 20:55:00,
2013-01-18 15:00:00,63.5,36.1,30.39,SSW,193,3.0,11.0,36,0.00,,SKC,0.00,VWS V14.01,2013-01-18 21:00:00,
2013-01-18 15:05:00,63.7,36.3,30.39,SSW,211,8.0,8.0,36,0.00,,SKC,0.00,VWS V14.01,2013-01-18 21:05:00,
2013-01-18 15:10:00,64.0,35.8,30.39,South,183,4.0,10.0,35,0.00,,SKC,0.00,VWS V14.01,2013-01-18 21:10:00,
2013-01-18 15:15:00,64.1,35.2,30.39,SSW,202,1.0,10.0,34,0.00,,SKC,0.00,VWS V14.01,2013-01-18 21:15:00,
2013-01-18 15:20:00,64.1,35.9,30.39,SSW,193,5.0,10.0,35,0.00,,SKC,0.00,VWS V14.01,2013-01-18 21:20:00,
2013-01-18 15:25:00,64.1,35.2,30.38,South,188,4.0,11.0,34,0.00,,SKC,0.00,VWS V14.01,2013-01-18 21:25:00,
2013-01-18 15:30:00,63.9,35.7,30.38,South,191,5.0,11.0,35,0.00,,SKC,0.00,VWS V14.01,2013-01-18 21:30:00,
2013-01-18 15:35:00,64.0,35.8,30.38,SSW,193,0.0,4.0,35,0.00,,SKC,0.00,VWS V14.01,2013-01-18 21:35:00,
2013-01-18 15:40:00,64.1,35.2,30.38,SSW,204,2.0,10.0,34,0.00,,SKC,0.00,VWS V14.01,2013-01-18 21:40:00,
2013-01-18 15:45:00,64.1,35.2,30.37,SW,214,6.0,13.0,34,0.00,,SKC,0.00,VWS V14.01,2013-01-18 21:45:00,
2013-01-18 15:50:00,64.1,35.9,30.38,SSW,210,7.0,13.0,35,0.00,,SKC,0.00,VWS V14.01,2013-01-18 21:50:00,
2013-01-18 15:55:00,64.1,35.2,30.37,SSW,207,0.0,13.0,34,0.00,,SKC,0.00,VWS V14.01,2013-01-18 21:55:00,
2013-01-18 16:00:00,64.1,35.2,30.38,SSW,200,2.0,13.0,34,0.00,,SKC,0.00,VWS V14.01,2013-01-18 22:00:00,
2013-01-18 16:05:00,64.1,35.2,30.38,South,187,5.0,10.0,34,0.00,,SKC,0.00,VWS V14.01,2013-01-18 22:05:00,
2013-01-18 16:10:00,63.9,35.0,30.38,South,180,3.0,10.0,34,0.00,,SKC,0.00,VWS V14.01,2013-01-18 22:10:00,
2013-01-18 16:15:00,63.7,35.6,30.38,SSE,154,6.0,10.0,35,0.00,,SKC,0.00,VWS V14.01,2013-01-18 22:15:00,
2013-01-18 16:20:00,63.4,35.3,30.38,SSE,147,3.0,11.0,35,0.00,,SKC,0.00,VWS V14.01,2013-01-18 22:20:00,
2013-01-18 16:25:00,63.4,35.3,30.38,SSE,150,0.0,11.0,35,0.00,,SKC,0.00,VWS V14.01,2013-01-18 22:25:00,
2013-01-18 16:30:00,63.4,35.3,30.38,South,173,5.0,11.0,35,0.00,,SKC,0.00,VWS V14.01,2013-01-18 22:30:00,
2013-01-18 16:35:00,63.1,35.0,30.38,South,176,4.0,6.0,35,0.00,,SKC,0.00,VWS V14.01,2013-01-18 22:35:00,
2013-01-18 16:40:00,62.9,35.6,30.38,South,176,1.0,6.0,36,0.00,,SKC,0.00,VWS V14.01,2013-01-18 22:40:00,
2013-01-18 16:45:00,62.6,35.3,30.38,South,175,1.0,6.0,36,0.00,,SKC,0.00,VWS V14.01,2013-01-18 22:45:00,
2013-01-18 16:50:00,62.3,35.0,30.38,South,172,1.0,6.0,36,0.00,,SKC,0.00,VWS V14.01,2013-01-18 22:50:00,
2013-01-18 16:55:00,62.0,34.8,30.38,South,169,2.0,6.0,36,0.00,,SKC,0.00,VWS V14.01,2013-01-18 22:55:00,
2013-01-18 17:00:00,61.8,34.6,30.38,South,169,3.0,6.0,36,0.00,,SKC,0.00,VWS V14.01,2013-01-18 23:00:00,
2013-01-18 17:05:00,61.6,34.4,30.38,South,169,0.0,4.0,36,0.00,,SKC,0.00,VWS V14.01,2013-01-18 23:05:00,
2013-01-18 17:10:00,61.4,34.2,30.38,South,169,4.0,4.0,36,0.00,,SKC,0.00,VWS V14.01,2013-01-18 23:10:00,
2013-01-18 17:15:00,61.2,34.7,30.38,South,169,2.0,4.0,37,0.00,,SKC,0.00,VWS V14.01,2013-01-18 23:15:00,
2013-01-18 17:20:00,61.1,34.7,30.38,South,169,0.0,4.0,37,0.00,,SKC,0.00,VWS V14.01,2013-01-18 23:20:00,
2013-01-18 17:25:00,60.9,34.5,30.38,South,169,0.0,4.0,37,0.00,,SKC,0.00,VWS V14.01,2013-01-18 23:25:00,
2013-01-18 17:30:00,60.8,34.4,30.38,South,169,3.0,4.0,37,0.00,,SKC,0.00,VWS V14.01,2013-01-18 23:30:00,
2013-01-18 17:35:00,60.6,34.9,30.38,South,169,3.0,5.0,38,0.00,,SKC,0.00,VWS V14.01,2013-01-18 23:35:00,
2013-01-18 17:40:00,60.5,34.8,30.39,South,169,0.0,5.0,38,0.00,,SKC,0.00,VWS V14.01,2013-01-18 23:40:00,
2013-01-18 17:45:00,60.3,35.3,30.38,South,169,3.0,5.0,39,0.00,,SKC,0.00,VWS V14.01,2013-01-18 23:45:00,
2013-01-18 17:50:00,60.1,35.1,30.38,South,169,0.0,5.0,39,0.00,,SKC,0.00,VWS V14.01,2013-01-18 23:50:00,
2013-01-18 17:55:00,59.9,34.9,30.38,South,169,0.0,5.0,39,0.00,,SKC,0.00,VWS V14.01,2013-01-18 23:55:00,
2013-01-18 18:00:00,59.6,35.3,30.39,South,169,0.0,5.0,40,0.00,,SKC,0.00,VWS V14.01,2013-01-19 00:00:00,
2013-01-18 18:05:00,59.4,35.1,30.39,South,169,0.0,0.0,40,0.00,,SKC,0.00,VWS V14.01,2013-01-19 00:05:00,
2013-01-18 18:10:00,59.1,34.8,30.39,South,169,0.0,0.0,40,0.00,,SKC,0.00,VWS V14.01,2013-01-19 00:10:00,
2013-01-18 18:15:00,58.8,35.2,30.39,South,169,0.0,0.0,41,0.00,,SKC,0.00,VWS V14.01,2013-01-19 00:15:00,
2013-01-18 18:20:00,58.5,34.9,30.39,South,169,0.0,0.0,41,0.00,,SKC,0.00,VWS V14.01,2013-01-19 00:20:00,
2013-01-18 18:25:00,58.2,35.2,30.39,South,169,0.0,0.0,42,0.00,,SKC,0.00,VWS V14.01,2013-01-19 00:25:00,
2013-01-18 18:30:00,57.8,35.5,30.39,South,169,0.0,0.0,43,0.00,,SKC,0.00,VWS V14.01,2013-01-19 00:30:00,
2013-01-18 18:35:00,57.5,35.2,30.39,South,169,0.0,0.0,43,0.00,,SKC,0.00,VWS V14.01,2013-01-19 00:35:00,
2013-01-18 18:40:00,57.1,34.8,30.39,South,169,0.0,0.0,43,0.00,,SKC,0.00,VWS V14.01,2013-01-19 00:40:00,
2013-01-18 18:45:00,56.7,35.0,30.39,South,169,0.0,0.0,44,0.00,,SKC,0.00,VWS V14.01,2013-01-19 00:45:00,
2013-01-18 18:50:00,56.4,34.8,30.39,South,169,0.0,0.0,44,0.00,,SKC,0.00,VWS V14.01,2013-01-19 00:50:00,
2013-01-18 18:55:00,56.1,35.1,30.39,South,169,0.0,0.0,45,0.00,,SKC,0.00,VWS V14.01,2013-01-19 00:55:00,
2013-01-18 19:00:00,55.9,34.9,30.39,South,169,0.0,0.0,45,0.00,,SKC,0.00,VWS V14.01,2013-01-19 01:00:00,
2013-01-18 19:05:00,55.5,35.1,30.39,South,169,0.0,0.0,46,0.00,,SKC,0.00,VWS V14.01,2013-01-19 01:05:00,
2013-01-18 19:10:00,55.2,35.3,30.39,South,169,0.0,0.0,47,0.00,,SKC,0.00,VWS V14.01,2013-01-19 01:10:00,
2013-01-18 19:15:00,54.8,35.0,30.39,South,169,0.0,0.0,47,0.00,,SKC,0.00,VWS V14.01,2013-01-19 01:15:00,
2013-01-18 19:20:00,54.4,34.6,30.39,South,169,0.0,0.0,47,0.00,,SKC,0.00,VWS V14.01,2013-01-19 01:20:00,
2013-01-18 19:25:00,54.2,35.0,30.39,South,169,0.0,1.0,48,0.00,,SKC,0.00,VWS V14.01,2013-01-19 01:25:00,
2013-01-18 19:30:00,53.9,34.7,30.39,South,169,0.0,1.0,48,0.00,,SKC,0.00,VWS V14.01,2013-01-19 01:30:00,
2013-01-18 19:35:00,53.6,34.9,30.39,South,169,0.0,0.0,49,0.00,,SKC,0.00,VWS V14.01,2013-01-19 01:35:00,
2013-01-18 19:40:00,53.5,34.8,30.39,South,169,0.0,0.0,49,0.00,,SKC,0.00,VWS V14.01,2013-01-19 01:40:00,
2013-01-18 19:45:00,53.3,35.2,30.39,South,169,0.0,0.0,50,0.00,,SKC,0.00,VWS V14.01,2013-01-19 01:45:00,
2013-01-18 19:50:00,53.1,35.0,30.39,South,169,0.0,0.0,50,0.00,,SKC,0.00,VWS V14.01,2013-01-19 01:50:00,
2013-01-18 19:55:00,53.0,34.9,30.39,South,169,0.0,0.0,50,0.00,,SKC,0.00,VWS V14.01,2013-01-19 01:55:00,
2013-01-18 20:00:00,52.7,34.6,30.39,South,169,0.0,0.0,50,0.00,,SKC,0.00,VWS V14.01,2013-01-19 02:00:00,
2013-01-18 20:05:00,52.4,34.8,30.39,South,169,0.0,0.0,51,0.00,,SKC,0.00,VWS V14.01,2013-01-19 02:05:00,
2013-01-18 20:10:00,52.2,34.6,30.39,South,169,0.0,0.0,51,0.00,,SKC,0.00,VWS V14.01,2013-01-19 02:10:00,
2013-01-18 20:15:00,51.9,34.4,30.39,South,169,0.0,0.0,51,0.00,,SKC,0.00,VWS V14.01,2013-01-19 02:15:00,
2013-01-18 20:20:00,51.7,34.7,30.39,South,169,0.0,0.0,52,0.00,,SKC,0.00,VWS V14.01,2013-01-19 02:20:00,
2013-01-18 20:25:00,51.4,34.4,30.39,South,169,0.0,0.0,52,0.00,,SKC,0.00,VWS V14.01,2013-01-19 02:25:00,
2013-01-18 20:32:00,51.0,34.5,30.39,South,169,0.0,0.0,53,0.00,,SKC,0.00,VWS V14.01,2013-01-19 02:32:00,
2013-01-18 20:37:00,50.8,34.3,30.39,South,169,0.0,0.0,53,0.00,,SKC,0.00,VWS V14.01,2013-01-19 02:37:00,
2013-01-18 20:42:00,50.5,34.5,30.39,South,169,0.0,0.0,54,0.00,,SKC,0.00,VWS V14.01,2013-01-19 02:42:00,
2013-01-18 20:47:00,50.3,34.3,30.39,South,169,0.0,0.0,54,0.00,,SKC,0.00,VWS V14.01,2013-01-19 02:47:00,
2013-01-18 20:52:00,50.0,34.5,30.39,South,169,0.0,0.0,55,0.00,,SKC,0.00,VWS V14.01,2013-01-19 02:52:00,
2013-01-18 20:57:00,49.8,34.3,30.39,South,169,0.0,0.0,55,0.00,,SKC,0.00,VWS V14.01,2013-01-19 02:57:00,
2013-01-18 21:02:00,49.6,34.6,30.39,South,169,0.0,0.0,56,0.00,,SKC,0.00,VWS V14.01,2013-01-19 03:02:00,
2013-01-18 21:07:00,49.4,34.4,30.39,South,169,0.0,0.0,56,0.00,,SKC,0.00,VWS V14.01,2013-01-19 03:07:00,
2013-01-18 21:12:00,49.2,34.2,30.39,South,169,0.0,0.0,56,0.00,,SKC,0.00,VWS V14.01,2013-01-19 03:12:00,
2013-01-18 21:17:00,49.0,34.0,30.39,South,169,0.0,0.0,56,0.00,,SKC,0.00,VWS V14.01,2013-01-19 03:17:00,
2013-01-18 21:22:00,49.0,34.5,30.40,South,169,0.0,0.0,57,0.00,,SKC,0.00,VWS V14.01,2013-01-19 03:22:00,
2013-01-18 21:27:00,48.9,34.3,30.39,South,169,0.0,0.0,57,0.00,,SKC,0.00,VWS V14.01,2013-01-19 03:27:00,
2013-01-18 21:32:00,48.9,34.3,30.39,South,169,0.0,0.0,57,0.00,,SKC,0.00,VWS V14.01,2013-01-19 03:32:00,
2013-01-18 21:37:00,48.8,34.3,30.40,South,169,0.0,0.0,57,0.00,,SKC,0.00,VWS V14.01,2013-01-19 03:37:00,
2013-01-18 21:42:00,48.8,34.3,30.39,South,169,0.0,0.0,57,0.00,,SKC,0.00,VWS V14.01,2013-01-19 03:42:00,
2013-01-18 21:47:00,48.7,34.2,30.39,South,169,0.0,0.0,57,0.00,,SKC,0.00,VWS V14.01,2013-01-19 03:47:00,
2013-01-18 21:52:00,48.6,34.5,30.39,South,169,0.0,0.0,58,0.00,,SKC,0.00,VWS V14.01,2013-01-19 03:52:00,
2013-01-18 21:57:00,48.6,34.5,30.39,South,169,3.0,6.0,58,0.00,,SKC,0.00,VWS V14.01,2013-01-19 03:57:00,
2013-01-18 22:02:00,48.6,35.4,30.39,South,169,3.0,3.0,60,0.00,,SKC,0.00,VWS V14.01,2013-01-19 04:02:00,
2013-01-18 22:07:00,48.8,36.0,30.39,South,169,0.0,3.0,61,0.00,,SKC,0.00,VWS V14.01,2013-01-19 04:07:00,
2013-01-18 22:12:00,48.9,36.5,30.39,South,169,3.0,5.0,62,0.00,,SKC,0.00,VWS V14.01,2013-01-19 04:12:00,
2013-01-18 22:17:00,49.1,36.7,30.39,SSE,168,1.0,5.0,62,0.00,,SKC,0.00,VWS V14.01,2013-01-19 04:17:00,
2013-01-18 22:22:00,49.2,37.2,30.38,SSE,168,0.0,5.0,63,0.00,,SKC,0.00,VWS V14.01,2013-01-19 04:22:00,
2013-01-18 22:27:00,49.3,37.2,30.38,SSE,168,2.0,6.0,63,0.00,,SKC,0.00,VWS V14.01,2013-01-19 04:27:00,
2013-01-18 22:32:00,49.3,37.7,30.38,SSE,168,3.0,3.0,64,0.00,,SKC,0.00,VWS V14.01,2013-01-19 04:32:00,
2013-01-18 22:37:00,49.3,37.7,30.38,SSE,168,1.0,6.0,64,0.00,,SKC,0.00,VWS V14.01,2013-01-19 04:37:00,
2013-01-18 22:42:00,49.3,38.0,30.38,SSE,168,1.0,6.0,65,0.00,,SKC,0.00,VWS V14.01,2013-01-19 04:42:00,
2013-01-18 22:47:00,49.2,38.0,30.38,SSE,168,0.0,6.0,65,0.00,,SKC,0.00,VWS V14.01,2013-01-19 04:47:00,
2013-01-18 22:52:00,49.2,38.3,30.38,SSE,168,3.0,6.0,66,0.00,,SKC,0.00,VWS V14.01,2013-01-19 04:52:00,
2013-01-18 22:57:00,49.2,38.3,30.38,SSE,168,0.0,6.0,66,0.00,,SKC,0.00,VWS V14.01,2013-01-19 04:57:00,
2013-01-18 23:00:00,49.1,38.2,30.38,SSE,168,0.0,6.0,66,0.00,,SKC,0.00,VWS V14.01,2013-01-19 05:00:00,
2013-01-18 23:01:00,49.1,38.2,30.38,SSE,168,0.0,6.0,66,0.00,,SKC,0.00,VWS V14.01,2013-01-19 05:01:00,
2013-01-18 23:02:00,49.1,38.2,30.38,SSE,168,0.0,6.0,66,0.00,,SKC,0.00,VWS V14.01,2013-01-19 05:02:00,
2013-01-18 23:03:00,49.1,38.2,30.38,SSE,168,0.0,0.0,66,0.00,,SKC,0.00,VWS V14.01,2013-01-19 05:03:00,
2013-01-18 23:08:00,48.9,38.1,30.38,SSE,168,0.0,0.0,66,0.00,,SKC,0.00,VWS V14.01,2013-01-19 05:08:00,
2013-01-18 23:13:00,48.8,38.0,30.38,SSE,168,0.0,0.0,66,0.00,,SKC,0.00,VWS V14.01,2013-01-19 05:13:00,
2013-01-18 23:18:00,48.6,38.2,30.37,SSE,168,0.0,0.0,67,0.00,,SKC,0.00,VWS V14.01,2013-01-19 05:18:00,
2013-01-18 23:23:00,48.5,38.1,30.37,SSE,168,0.0,1.0,67,0.00,,SKC,0.00,VWS V14.01,2013-01-19 05:23:00,
2013-01-18 23:28:00,48.3,38.2,30.37,SSE,168,0.0,1.0,68,0.00,,SKC,0.00,VWS V14.01,2013-01-19 05:28:00,
2013-01-18 23:33:00,48.1,38.0,30.37,SSE,168,0.0,0.0,68,0.00,,SKC,0.00,VWS V14.01,2013-01-19 05:33:00,
2013-01-18 23:38:00,48.0,38.3,30.37,SSE,168,0.0,0.0,69,0.00,,SKC,0.00,VWS V14.01,2013-01-19 05:38:00,
2013-01-18 23:43:00,47.8,38.5,30.37,SSE,168,0.0,1.0,70,0.00,,SKC,0.00,VWS V14.01,2013-01-19 05:43:00,
2013-01-18 23:48:00,47.6,38.3,30.37,SSE,168,0.0,1.0,70,0.00,,SKC,0.00,VWS V14.01,2013-01-19 05:48:00,
2013-01-18 23:53:00,47.5,38.6,30.36,SSE,168,0.0,1.0,71,0.00,,SKC,0.00,VWS V14.01,2013-01-19 05:53:00,
2013-01-18 23:58:00,47.3,38.4,30.36,SSE,168,0.0,1.0,71,0.00,,SKC,0.00,VWS V14.01,2013-01-19 05:58:00,